When you browse on this site, cookies collect data to enhance your experience and personalize the content and advertising you see.
Visit our Privacy Policy to learn more. By continuing to use the site, you agree to this use of cookies and data.
  • în România
  • Lista ţărilor
  • Pe 7 zile
  • Temperatura apei
  • Hartă satelitară
  • Meteo pe hartă
  • Widget-uri
  • user-avatar
    Intrare

    Meteo pe oră la Viedma

    Astăzi, 27 Martie, Miercuri

    Timp Temperatura Precipitaţii Vânt Presiune Umiditate
    00:00 +13°C° 0 mm 4 m/s 767 mmHg 67%
    01:00 +13°C° 0 mm 4 m/s 767 mmHg 71%
    02:00 +13°C° 0 mm 4 m/s 766 mmHg 76%
    03:00 +12°C° 0 mm 4 m/s 766 mmHg 80%
    04:00 +12°C° 0 mm 4 m/s 766 mmHg 83%
    05:00 +12°C° 0 mm 3 m/s 766 mmHg 87%
    06:00 +13°C° 0 mm 4 m/s 766 mmHg 76%
    07:00 +14°C° 0 mm 4 m/s 766 mmHg 66%
    08:00 +14°C° 0 mm 5 m/s 766 mmHg 56%
    09:00 +17°C° 0 mm 5 m/s 766 mmHg 48%
    10:00 +20°C° 0 mm 6 m/s 766 mmHg 41%
    11:00 +22°C° 0 mm 6 m/s 766 mmHg 34%
    12:00 +23°C° 0 mm 7 m/s 765 mmHg 33%
    13:00 +24°C° 0 mm 7 m/s 765 mmHg 32%
    14:00 +26°C° 0 mm 7 m/s 764 mmHg 31%
    15:00 +26°C° 0 mm 7 m/s 764 mmHg 32%
    16:00 +26°C° 0 mm 7 m/s 763 mmHg 33%
    17:00 +26°C° 0 mm 7 m/s 763 mmHg 34%
    18:00 +23°C° 0 mm 7 m/s 763 mmHg 40%
    19:00 +22°C° 0 mm 7 m/s 763 mmHg 45%
    20:00 +20°C° 0 mm 7 m/s 763 mmHg 51%
    21:00 +20°C° 0 mm 7 m/s 763 mmHg 50%
    22:00 +20°C° 0 mm 7 m/s 763 mmHg 49%
    23:00 +20°C° 0 mm 7 m/s 763 mmHg 47%

    Mâine, 28 Martie, Joi

    Timp Temperatura Precipitaţii Vânt Presiune Umiditate
    00:00 +20°C° 0 mm 7 m/s 762 mmHg 49%
    01:00 +20°C° 0 mm 7 m/s 762 mmHg 51%
    02:00 +18°C° 0 mm 7 m/s 762 mmHg 52%
    03:00 +18°C° 0 mm 7 m/s 762 mmHg 55%
    04:00 +18°C° 0 mm 7 m/s 762 mmHg 57%
    05:00 +18°C° 0 mm 7 m/s 762 mmHg 60%
    06:00 +18°C° 0 mm 8 m/s 762 mmHg 61%
    07:00 +18°C° 0 mm 8 m/s 762 mmHg 61%
    08:00 +18°C° 0 mm 9 m/s 762 mmHg 61%
    09:00 +21°C° 0 mm 9 m/s 762 mmHg 56%
    10:00 +23°C° 0 mm 9 m/s 762 mmHg 51%
    11:00 +26°C° 0 mm 9 m/s 762 mmHg 45%
    12:00 +27°C° 0 mm 8 m/s 761 mmHg 42%
    13:00 +28°C° 0 mm 8 m/s 761 mmHg 39%
    14:00 +31°C° 0 mm 8 m/s 760 mmHg 36%
    15:00 +31°C° 0 mm 8 m/s 760 mmHg 36%
    16:00 +30°C° 0 mm 7 m/s 759 mmHg 36%
    17:00 +30°C° 0 mm 7 m/s 759 mmHg 35%
    18:00 +29°C° 0 mm 6 m/s 759 mmHg 38%
    19:00 +28°C° 0 mm 6 m/s 759 mmHg 41%
    20:00 +26°C° 0 mm 5 m/s 759 mmHg 44%
    21:00 +26°C° 0 mm 6 m/s 759 mmHg 45%
    22:00 +26°C° 0 mm 7 m/s 759 mmHg 47%
    23:00 +24°C° 0 mm 7 m/s 758 mmHg 48%

    Poimâine, 29 Martie, Vineri

    Timp Temperatura Precipitaţii Vânt Presiune Umiditate
    00:00 +24°C° 0 mm 8 m/s 758 mmHg 50%
    01:00 +23°C° 0 mm 8 m/s 758 mmHg 52%
    02:00 +23°C° 0 mm 8 m/s 758 mmHg 55%
    03:00 +22°C° 0 mm 8 m/s 757 mmHg 57%
    04:00 +22°C° 0 mm 8 m/s 757 mmHg 59%
    05:00 +21°C° 0 mm 7 m/s 757 mmHg 61%
    06:00 +21°C° 0 mm 8 m/s 757 mmHg 62%
    07:00 +21°C° 0 mm 8 m/s 756 mmHg 63%
    08:00 +21°C° 0 mm 8 m/s 756 mmHg 64%
    09:00 +23°C° 0 mm 8 m/s 756 mmHg 58%
    10:00 +26°C° 0 mm 8 m/s 756 mmHg 52%
    11:00 +28°C° 0 mm 8 m/s 756 mmHg 46%
    12:00 +29°C° 0 mm 8 m/s 755 mmHg 43%
    13:00 +31°C° 0 mm 8 m/s 754 mmHg 39%
    14:00 +32°C° 0 mm 8 m/s 753 mmHg 36%
    15:00 +32°C° 0 mm 8 m/s 753 mmHg 35%
    16:00 +32°C° 0 mm 7 m/s 752 mmHg 35%
    17:00 +32°C° 0 mm 7 m/s 751 mmHg 34%
    18:00 +30°C° 0 mm 6 m/s 751 mmHg 37%
    19:00 +29°C° 0 mm 5 m/s 751 mmHg 40%
    20:00 +28°C° 0 mm 4 m/s 751 mmHg 43%
    21:00 +27°C° 0 mm 5 m/s 751 mmHg 44%
    22:00 +27°C° 0 mm 6 m/s 752 mmHg 45%
    23:00 +27°C° 0 mm 7 m/s 752 mmHg 46%

    30 Martie, Sâmbătă

    Timp Temperatura Precipitaţii Vânt Presiune Umiditate
    00:00 +26°C° 0 mm 7 m/s 752 mmHg 48%
    01:00 +23°C° 0 mm 7 m/s 753 mmHg 51%
    02:00 +22°C° 0 mm 7 m/s 753 mmHg 54%
    03:00 +21°C° 0 mm 7 m/s 754 mmHg 55%
    04:00 +21°C° 0 mm 7 m/s 754 mmHg 56%
    05:00 +20°C° 0 mm 7 m/s 755 mmHg 56%
    06:00 +20°C° 0 mm 7 m/s 756 mmHg 56%
    07:00 +20°C° 0 mm 6 m/s 757 mmHg 56%
    08:00 +21°C° 0 mm 6 m/s 757 mmHg 56%
    09:00 +22°C° 0 mm 6 m/s 758 mmHg 51%
    10:00 +23°C° 0 mm 6 m/s 759 mmHg 46%
    11:00 +24°C° 0 mm 6 m/s 759 mmHg 41%
    12:00 +24°C° 0 mm 6 m/s 759 mmHg 38%
    13:00 +24°C° 0 mm 6 m/s 759 mmHg 36%
    14:00 +26°C° 0 mm 6 m/s 759 mmHg 33%
    15:00 +24°C° 0 mm 6 m/s 759 mmHg 35%
    16:00 +23°C° 0 mm 5 m/s 759 mmHg 37%
    17:00 +22°C° 0 mm 5 m/s 759 mmHg 38%
    18:00 +21°C° 0 mm 4 m/s 759 mmHg 46%
    19:00 +20°C° 0 mm 3 m/s 760 mmHg 54%
    20:00 +18°C° 0 mm 2 m/s 760 mmHg 61%
    21:00 +18°C° 0 mm 2 m/s 760 mmHg 66%
    22:00 +18°C° 0 mm 1 m/s 760 mmHg 71%
    23:00 +18°C° 0 mm 1 m/s 759 mmHg 76%

    31 Martie, Duminică

    Timp Temperatura Precipitaţii Vânt Presiune Umiditate
    00:00 +16°C° 0 mm 1 m/s 759 mmHg 77%
    01:00 +16°C° 0 mm 2 m/s 759 mmHg 78%
    02:00 +16°C° 0 mm 2 m/s 759 mmHg 80%
    03:00 +15°C° 0 mm 2 m/s 758 mmHg 80%
    04:00 +15°C° 0 mm 2 m/s 758 mmHg 81%
    05:00 +15°C° 0 mm 2 m/s 757 mmHg 82%
    06:00 +16°C° 0 mm 3 m/s 758 mmHg 77%
    07:00 +16°C° 0 mm 3 m/s 758 mmHg 71%
    08:00 +17°C° 0 mm 3 m/s 758 mmHg 66%
    09:00 +20°C° 0 mm 3 m/s 757 mmHg 56%
    10:00 +22°C° 0 mm 3 m/s 757 mmHg 45%
    11:00 +26°C° 0 mm 4 m/s 757 mmHg 34%
    12:00 +27°C° 0 mm 4 m/s 756 mmHg 31%
    13:00 +29°C° 0 mm 4 m/s 756 mmHg 28%
    14:00 +30°C° 0 mm 4 m/s 755 mmHg 25%
    15:00 +30°C° 0 mm 4 m/s 755 mmHg 25%
    16:00 +30°C° 0 mm 4 m/s 754 mmHg 26%
    17:00 +30°C° 0 mm 4 m/s 754 mmHg 26%
    18:00 +28°C° 0 mm 5 m/s 754 mmHg 31%
    19:00 +26°C° 0 mm 5 m/s 754 mmHg 36%
    20:00 +23°C° 0 mm 5 m/s 754 mmHg 41%
    21:00 +22°C° 0 mm 5 m/s 755 mmHg 41%
    22:00 +22°C° 0 mm 6 m/s 755 mmHg 41%
    23:00 +21°C° 0 mm 6 m/s 755 mmHg 41%

    1 Aprilie, Luni

    Timp Temperatura Precipitaţii Vânt Presiune Umiditate
    00:00 +21°C° 0 mm 5 m/s 755 mmHg 44%
    01:00 +20°C° 0 mm 4 m/s 755 mmHg 46%
    02:00 +19°C° 0 mm 3 m/s 755 mmHg 48%
    03:00 +19°C° 0 mm 3 m/s 755 mmHg 50%
    04:00 +19°C° 0 mm 2 m/s 755 mmHg 52%
    05:00 +18°C° 0 mm 2 m/s 755 mmHg 54%
    06:00 +19°C° 0 mm 2 m/s 756 mmHg 52%
    07:00 +20°C° 0 mm 2 m/s 756 mmHg 50%
    08:00 +21°C° 0 mm 2 m/s 757 mmHg 48%
    09:00 +24°C° 0 mm 2 m/s 757 mmHg 43%
    10:00 +25°C° 0 mm 3 m/s 757 mmHg 39%
    11:00 +27°C° 0 mm 3 m/s 757 mmHg 35%
    12:00 +27°C° 0 mm 4 m/s 756 mmHg 35%
    13:00 +27°C° 0 mm 4 m/s 756 mmHg 36%
    14:00 +28°C° 0 mm 5 m/s 756 mmHg 36%
    15:00 +26°C° 0 mm 5 m/s 756 mmHg 40%
    16:00 +25°C° 0 mm 5 m/s 755 mmHg 44%
    17:00 +23°C° 0 mm 5 m/s 755 mmHg 48%
    18:00 +22°C° 0 mm 4 m/s 755 mmHg 51%
    19:00 +21°C° 0 mm 4 m/s 756 mmHg 54%
    20:00 +20°C° 0 mm 3 m/s 756 mmHg 57%
    21:00 +20°C° 0 mm 3 m/s 756 mmHg 58%
    22:00 +20°C° 0 mm 2 m/s 755 mmHg 59%
    23:00 +20°C° 0 mm 2 m/s 755 mmHg 59%
    Arată mai mult